Date,TemperatureHighF,TemperatureAvgF,TemperatureLowF,DewpointHighF,DewpointAvgF,DewpointLowF,HumidityHigh,HumidityAvg,HumidityLow,PressureMaxIn,PressureMinIn,WindSpeedMaxMPH,WindSpeedAvgMPH,GustSpeedMaxMPH,PrecipitationSumIn
2013-5-1,74,62,55,56,52,49,86,70,43,30.30,30.19,14,3,19,0.00
2013-5-2,70,59,54,56,52,50,96,80,55,30.30,30.24,9,2,13,0.01
2013-5-3,66,58,54,52,49,43,90,74,49,30.24,30.09,9,3,17,0.00
2013-5-4,56,51,48,48,45,38,97,80,68,30.10,29.98,12,4,24,0.26
2013-5-5,50,48,46,50,47,44,99,95,89,30.00,29.83,14,4,23,2.21
2013-5-6,74,58,46,54,47,33,99,71,27,29.95,29.80,11,3,17,0.09
2013-5-7,76,56,40,51,45,40,99,73,30,30.00,29.90,7,1,14,0.01
2013-5-8,75,59,50,58,53,50,99,84,46,30.09,29.96,15,0,34,0.07
2013-5-9,86,65,52,60,54,50,99,72,34,30.16,30.07,5,1,8,0.01
2013-5-10,87,66,49,60,55,49,99,71,36,30.16,30.00,8,1,13,0.00
2013-5-11,82,66,57,62,58,54,94,77,47,30.03,29.90,4,0,5,0.00
2013-5-12,69,58,43,54,41,31,93,59,25,30.11,29.96,6,1,9,0.00
2013-5-13,71,53,35,40,31,24,87,49,18,30.22,30.11,6,1,10,0.00
2013-5-14,86,60,34,49,39,30,97,54,21,30.27,30.11,9,1,15,0.00
2013-5-15,93,70,48,58,52,46,98,58,26,30.19,30.04,5,1,10,0.00
2013-5-16,86,68,51,59,54,49,97,66,34,30.13,30.05,3,0,4,0.00
2013-5-17,88,69,52,61,56,50,99,67,33,30.17,30.08,8,1,16,0.00
2013-5-18,77,66,60,65,60,54,99,84,63,30.16,30.09,10,2,16,0.76
2013-5-19,86,68,61,66,63,60,98,85,49,30.16,30.06,8,1,13,0.09
2013-5-20,97,73,61,67,63,61,99,75,35,30.17,30.07,6,1,9,0.01
2013-5-21,96,74,61,67,63,58,99,72,36,30.13,30.01,9,1,13,0.00
2013-5-22,88,69,61,66,62,58,98,79,45,30.08,29.95,8,1,12,0.30
2013-5-23,92,70,60,67,59,51,99,73,32,30.03,29.92,8,1,10,0.00
2013-5-24,74,62,47,54,46,37,90,60,29,30.27,30.02,7,1,11,0.00
2013-5-25,81,60,39,47,39,28,98,54,16,30.36,30.24,4,1,8,0.00
2013-5-26,83,64,52,53,47,41,85,59,25,30.32,30.22,5,0,9,0.01
2013-5-27,88,68,47,59,53,46,99,64,35,30.30,30.18,11,2,16,0.00
2013-5-28,90,73,60,62,58,54,90,63,34,30.27,30.19,9,2,16,0.00
2013-5-29,93,75,60,63,59,49,95,62,25,30.29,30.20,10,2,17,0.00
2013-5-30,90,73,60,63,60,57,97,66,36,30.33,30.22,14,2,22,0.00
2013-5-31,90,75,63,64,59,56,92,62,34,30.28,30.17,9,2,15,0.00